THOR ALTAIR DEB, 2177

Orbit data source: Space-Track

THOR ALTAIR DEB, 2177 is space debris in SSO originally from a launch on Thu, 31 Mar 1966 UTC launched from the Air Force Western Test Range (AFWTR). Debris objects in space refer to the collection of defunct objects orbiting the Earth. Examples of debris include non-operational satellites, rocket bodies, and fragments generated from explosions, collisions, or faulty payload assembly.

Loading next visibility...
THOR ALTAIR DEB details
Identifier
2177, 1966-026D
Orbit
SSO
Last TLE update18 hours ago
Origin
Flag of USUSAF SSD (US)
ManufacturerUnknown
MissionSpacecraft
Bus & MotorUnknown
MassUnknown
Launch date (UTC)
1966-03-31 (59 years ago)
Launch vehicleUnknown
Launch site
Air Force Western Test Range (AFWTR)
Object type
Payload
Rocket body
Debris
Shape & HBRUnknown
Radar Cross SectionSmall (<0.1 m²)

Expand to show TLE details & history

TLE from 18 hours ago
0 THOR ALTAIR DEB
1 02177U 66026D   24355.75013460  .00006027  00000-0  78310-3 0  9999
2 02177  98.9214 276.7742 0139586 258.0858 100.4669 14.74508651 82574
Epoch: 2024-12-20T18:00Z
Definitive object data (Epoch: 2024-12-20T18:00:11.629Z)
Latitude0.00002°
Longitude-83.08543°
Altitude668.829 km
Speed7.512 km/s
True Right ascension18h 27m 05s
True Declination0° 00' 00"
Sunlit
Object was in daylight at TLE epoch
Visualization TLE readout
Latitude-63.82076°
Longitude-63.76111°
Altitude594.438 km
Speed7.603 km/s
Apparent Right ascension21h 32m 38s
Apparent Declination-54° 10' 23"
Sunlit
Object is in daylight
Visualization observer readout
Local Sidereal Time10:39:12
Azimuth147.389° SSE
Elevation-71.878°
Doppler factor1
Orbital elements
Apogee altitude741.824 km
Perigee altitude545.791 km
Semi-major axis7,021.944 km
Eccentricity0.0139586
Inclination98.9214°
RAAN276.7742°
Arg. of periapsis258.0858°
True anomaly102.03466°
Mean anomaly100.4669°
Eccentric anomaly101.2513°
Mean motion3.68856 °/min
BSTAR0.0007831
Orbital period97.6 mins
Loading maneuver chart data...
Loading historical data...
Loading historical data...
Loading historical data...
Loading historical data...
Loading historical data...
Loading historical data...
Loading historical data...

THOR ALTAIR DEB Visibility forecast

Observer location: undefined°, undefined

Span
Click to sort rows by Start time (UTC) header in descending order
Start Az.
Max El. time (UTC)
Max El. Az.
Max El.
End time (UTC)
End Az.
8 mins2024-12-21 18:33:32.097Z146.067° SSE2024-12-21 18:37:32.097Z65.133° ENE39.371°2024-12-21 18:41:32.097Z357.154° N
4 mins2024-12-21 20:12:32.097Z244.107° WSW2024-12-21 20:14:32.097Z272.255° WNW15.252°2024-12-21 20:16:32.097Z298.435° NW
8 mins2024-12-22 08:02:32.097Z9.6° NNE2024-12-22 08:06:32.097Z245.744° WSW43.662°2024-12-22 08:10:32.097Z200.939° SSW
|